User: anonymous   Login
Location: Unspecified
(0.0000°N, 0.0000°E)
Time: 17:21:57
(UTC+00:00)
Language:

FIREBIRD 3 - Orbit

View from above orbital plane
View from above orbital plane
View from above satellite
View from above satellite

Ground track
Ground track

The orbit data is extracted from the following two-line orbital elements,

1 40377U 15003B   21336.85269941  .00006338  00000-0  22129-3 0  9998
2 40377  99.1125 153.8050 0112576 328.3961  31.0542 15.24206030378428
Epoch (UTC): 02 December 2021 20:27:53
Eccentricity: 0.0112576
inclination: 99.1125°
perigee height: 416 km
apogee height: 570 km
right ascension of ascending node: 153.8050°
argument of perigee: 328.3961°
revolutions per day: 15.24206030
mean anomaly at epoch: 31.0542°
orbit number at epoch: 37842

The dashed part of the orbit path shows where the satellite is in the earth's shadow,  

DLR